DW2973 Weather Reports


time (UTC)temp
C
wind
direction
speed
KPH
gust
KPH
rain 1hr
cm
rain 24hr
cm
rain mn
cm
humidity
%
barometer
mb
20260902123026 19 234 4.8 0.0 0.00 0.00 0.05 80 1013.1
20260902121525 20 221 4.8 0.0 0.00 0.00 0.05 76 1013.1
20260902120024 20 238 3.2 0.0 0.00 0.00 0.05 75 1013.2
20260902114527 20 221 3.2 0.0 0.00 0.00 0.05 74 1013.2
20260902113027 20 227 4.8 0.0 0.00 0.00 0.05 72 1013.3
20260902111523 20 229 3.2 0.0 0.00 0.00 0.05 71 1013.4
20260902110023 21 244 3.2 0.0 0.00 0.00 0.05 71 1013.4
20260902104526 20 215 6.4 0.0 0.00 0.00 0.05 73 1013.4
20260902103019 20 229 1.6 0.0 0.00 0.00 0.05 74 1013.4
20260902101519 20 214 4.8 0.0 0.00 0.00 0.05 75 1013.4
20260902100018 20 215 1.6 0.0 0.00 0.00 0.05 76 1013.4
20260902094516 20 192 1.6 0.0 0.00 0.00 0.05 76 1013.4
20260902093015 20 224 3.2 0.0 0.00 0.00 0.05 79 1013.4
20260902091515 19 217 8.0 0.0 0.00 0.00 0.05 78 1013.5
20260902090014 20 238 3.2 0.0 0.00 0.00 0.03 79 1013.5
20260902084516 19 225 3.2 0.0 0.00 0.00 0.03 81 1013.5
20260902083006 18 229 1.6 0.0 0.00 0.00 0.03 83 1013.5
20260902081504 18 227 1.6 0.0 0.00 0.00 0.03 84 1013.4
20260902080002 17 244 1.6 0.0 0.00 0.00 0.03 86 1013.5
20260902074612 17 238 1.6 0.0 0.00 0.00 0.03 87 1013.4
20260902073057 17 219 3.2 0.0 0.00 0.00 0.03 88 1013.3
20260902071557 17 227 3.2 0.0 0.00 0.00 0.03 88 1013.2
20260902070053 16 222 3.2 0.0 0.00 0.00 0.03 89 1013.2
20260902064553 16 216 4.8 0.0 0.00 0.00 0.03 89 1013.1
20260902063110 16 225 3.2 0.0 0.00 0.00 0.03 90 1013.2
20260902061553 15 215 3.2 0.0 0.00 0.00 0.03 90 1013.1
20260902060105 15 229 1.6 0.0 0.00 0.00 0.03 90 1013.1
20260902054603 15 218 1.6 0.0 0.00 0.00 0.03 90 1013.1
20260902053047 15 221 1.6 0.0 0.00 0.00 0.03 91 1013.1
20260902051552 15 229 3.2 0.0 0.00 0.00 0.03 91 1013.1
20260902050046 15 217 1.6 0.0 0.00 0.00 0.03 91 1013.1
20260902044546 15 226 0.0 0.0 0.00 0.00 0.03 91 1013.1
20260902043105 15 240 0.0 0.0 0.00 0.00 0.03 91 1013.2
20260902041600 15 225 1.6 0.0 0.00 0.00 0.03 91 1013.1
20260902040045 14 238 1.6 0.0 0.00 0.00 0.03 91 1013.3
20260902034550 14 259 0.0 0.0 0.00 0.00 0.03 91 1013.2
20260902033046 14 226 1.6 0.0 0.00 0.00 0.03 91 1013.3
20260902031542 13 225 0.0 0.0 0.00 0.00 0.03 90 1013.4
20260902030044 13 249 0.0 0.0 0.00 0.00 0.03 90 1013.4
20260902024542 13 259 0.0 0.0 0.00 0.00 0.03 90 1013.5
20260902023041 13 280 0.0 0.0 0.00 0.00 0.03 89 1013.4
20260902021540 13 280 0.0 0.0 0.00 0.00 0.03 89 1013.4
20260902020043 13 280 0.0 0.0 0.00 0.00 0.03 88 1013.3
20260902014548 13 280 0.0 0.0 0.00 0.00 0.03 88 1013.3
20260902013043 13 280 0.0 0.0 0.00 0.00 0.03 87 1013.3
20260902011535 13 280 0.0 0.0 0.00 0.00 0.03 87 1013.2
20260902010046 13 280 0.0 0.0 0.00 0.00 0.03 86 1013.4
20260902004535 14 280 0.0 0.0 0.00 0.00 0.03 86 1013.6
20260902003106 14 267 0.0 0.0 0.00 0.00 0.03 85 1013.4
20260902001533 14 170 0.0 0.0 0.00 0.00 0.03 85 1013.5
20260902000034 14 167 0.0 0.0 0.00 0.00 0.00 84 1013.6
20260901234528 14 346 0.0 0.0 0.00 0.00 0.00 85 1013.6
20260901233027 14 240 0.0 0.0 0.00 0.00 0.00 84 1013.7
20260901231525 15 237 0.0 0.0 0.00 0.00 0.00 85 1013.7
20260901230024 15 229 0.0 0.0 0.00 0.00 0.00 85 1013.6
20260901224522 15 276 0.0 0.0 0.00 0.00 0.00 86 1013.5
20260901223020 15 286 0.0 0.0 0.00 0.00 0.00 86 1013.4
20260901221520 15 253 0.0 0.0 0.00 0.00 0.00 87 1013.3
20260901220033 15 253 0.0 0.0 0.00 0.00 0.00 87 1013.3
20260901214516 15 254 0.0 0.0 0.00 0.00 0.10 88 1013.3
20260901213015 15 330 0.0 0.0 0.00 0.00 0.10 87 1013.2
20260901211514 15 330 0.0 0.0 0.00 0.00 0.10 87 1013.1
20260901210014 15 330 0.0 0.0 0.00 0.00 0.10 86 1013.0
20260901204514 15 330 0.0 0.0 0.00 0.00 0.10 85 1013.0
20260901203011 15 330 0.0 0.0 0.00 0.00 0.10 85 1013.0
20260901201510 15 330 0.0 0.0 0.00 0.00 0.10 84 1013.0
20260901200009 16 330 0.0 0.0 0.00 0.00 0.10 83 1012.9
20260901194508 16 330 0.0 0.0 0.00 0.00 0.10 82 1012.8
20260901193008 16 330 0.0 0.0 0.00 0.00 0.10 82 1012.8
20260901191507 16 334 0.0 0.0 0.00 0.00 0.10 82 1012.6
20260901190011 17 333 0.0 0.0 0.00 0.00 0.10 83 1012.5
20260901184506 17 266 0.0 0.0 0.00 0.00 0.10 84 1012.2
20260901183002 17 248 0.0 0.0 0.00 0.00 0.10 84 1012.2
20260901181502 17 244 0.0 0.0 0.00 0.00 0.10 83 1012.0
20260901180100 17 220 0.0 0.0 0.00 0.00 0.10 83 1011.9
20260901174601 18 220 0.0 0.0 0.00 0.00 0.10 81 1011.7
20260901173058 18 225 0.0 0.0 0.00 0.00 0.10 80 1011.7
20260901171629 19 232 0.0 0.0 0.00 0.00 0.10 79 1011.6
20260901170105 19 229 0.0 0.0 0.00 0.00 0.08 78 1011.6
20260901164612 20 236 0.0 0.0 0.00 0.00 0.08 76 1011.5
20260901163114 20 233 0.0 0.0 0.00 0.00 0.08 77 1011.5
20260901161556 20 210 0.0 0.0 0.00 0.00 0.08 75 1011.5
20260901160053 20 252 0.0 0.0 0.00 0.00 0.08 75 1011.4
20260901154556 20 249 0.0 0.0 0.00 0.00 0.08 77 1011.3
20260901153051 20 227 0.0 0.0 0.00 0.00 0.08 78 1011.3
20260901151551 21 259 0.0 0.0 0.00 0.00 0.08 75 1011.3
20260901150050 21 231 0.0 0.0 0.00 0.00 0.08 73 1011.2
20260901144549 21 230 0.0 0.0 0.00 0.00 0.08 73 1011.0
20260901143047 22 262 0.0 0.0 0.00 0.00 0.08 72 1011.0
20260901141548 22 234 0.0 0.0 0.00 0.00 0.08 72 1011.0
20260901140056 22 337 0.0 0.0 0.00 0.00 0.08 72 1011.0
20260901134551 22 215 0.0 0.0 0.00 0.00 0.08 72 1010.9
20260901133059 22 215 0.0 0.0 0.00 0.00 0.08 71 1010.8
20260901131547 22 240 0.0 0.0 0.00 0.00 0.08 72 1010.8
20260901130044 22 240 0.0 0.0 0.00 0.00 0.08 71 1010.9
20260901124541 22 224 0.0 0.0 0.00 0.00 0.08 73 1010.9